STARLINK-1580 (46041 NORAD) Tracking and Keplerian Element Data

This shows tracking and keplerian element data for the satellite.

Feedback or suggestion? Click here.




ElementValue
Catalog46041
NameSTARLINK-1580
Epoch Orbit1799
Epoch Day330.87339046
Epoch Year2020
RAAN149.891
Inclination53.0004
Eccentricity0.0002344
Argument of Perigee78.9675
Mean Anonmoly281.1576
Mean Motion15.05587141
Decay Rate1.108E-05
L11 46041U 20055Q 20330.87339046 .00001108 00000-0 95237-4 0 9995
L22 46041 53.0004 149.8910 0002344 78.9675 281.1576 15.05587141 17999

Live tracking and technical data element details for STARLINK-1580 (NORAD 46041). STARLINK-1580 can be tracked NOW for your location showing map with azimuth and elevation plus other details from your city location.

Track the satellite on the map from your city or location and see movement details for azimuth, elevation, latitude, longitude, range, height, and movement on the map or in text.







IsCatalogInMostPopularTable: catalog: 46041, numindb: 22
Update: records affected: 1



GetName: 46041 STARLINK-1580

Hit Count: updated at: Thu, 26 Nov 2020 23:46:45 GMT